Time,TemperatureF,DewpointF,PressureIn,WindDirection,WindDirectionDegrees,WindSpeedMPH,WindSpeedGustMPH,Humidity,HourlyPrecipIn,Conditions,Clouds,dailyrainin,SoftwareType,DateUTC
2013-02-03 00:03:00,50.1,47.0,30.26,WNW,292,0.0,0.0,90,0.00,,,0.00,weatherlink.com 1.10,2013-02-03 06:03:00,
2013-02-03 00:18:00,49.9,47.0,30.26,WNW,292,0.0,0.0,91,0.00,,,0.00,weatherlink.com 1.10,2013-02-03 06:18:00,
2013-02-03 00:33:00,49.9,47.0,30.26,WNW,292,0.0,0.0,91,0.00,,,0.00,weatherlink.com 1.10,2013-02-03 06:33:00,
2013-02-03 00:48:00,49.6,47.0,30.26,WNW,292,0.0,0.0,91,0.00,,,0.00,weatherlink.com 1.10,2013-02-03 06:48:00,
2013-02-03 01:03:00,49.3,47.0,30.26,WNW,292,0.0,0.0,91,0.00,,,0.00,weatherlink.com 1.10,2013-02-03 07:03:00,
2013-02-03 01:19:00,48.9,46.0,30.25,WNW,292,0.0,0.0,91,0.00,,,0.00,weatherlink.com 1.10,2013-02-03 07:19:00,
2013-02-03 01:33:00,48.3,46.0,30.25,WNW,292,0.0,1.0,91,0.00,,,0.00,weatherlink.com 1.10,2013-02-03 07:33:00,
2013-02-03 02:03:00,47.1,45.0,30.25,WNW,292,0.0,0.0,91,0.00,,,0.00,weatherlink.com 1.10,2013-02-03 08:03:00,
2013-02-03 02:19:00,46.5,44.0,30.25,WNW,292,0.0,0.0,91,0.00,,,0.00,weatherlink.com 1.10,2013-02-03 08:19:00,
2013-02-03 02:33:00,46.1,44.0,30.25,WNW,292,0.0,0.0,91,0.00,,,0.00,weatherlink.com 1.10,2013-02-03 08:33:00,
2013-02-03 02:49:00,45.5,43.0,30.25,WNW,292,0.0,0.0,91,0.00,,,0.00,weatherlink.com 1.10,2013-02-03 08:49:00,
2013-02-03 03:04:00,45.0,43.0,30.25,WNW,292,0.0,0.0,91,0.00,,,0.00,weatherlink.com 1.10,2013-02-03 09:04:00,
2013-02-03 03:19:00,44.3,42.0,30.25,WNW,292,0.0,0.0,91,0.00,,,0.00,weatherlink.com 1.10,2013-02-03 09:19:00,
2013-02-03 03:34:00,43.5,41.0,30.26,WNW,292,0.0,0.0,91,0.00,,,0.00,weatherlink.com 1.10,2013-02-03 09:34:00,
2013-02-03 03:49:00,42.9,41.0,30.25,WNW,292,0.0,0.0,91,0.00,,,0.00,weatherlink.com 1.10,2013-02-03 09:49:00,
2013-02-03 04:04:00,42.5,40.0,30.25,WNW,292,0.0,0.0,91,0.00,,,0.00,weatherlink.com 1.10,2013-02-03 10:04:00,
2013-02-03 04:19:00,42.2,40.0,30.25,WNW,292,0.0,0.0,92,0.00,,,0.00,weatherlink.com 1.10,2013-02-03 10:19:00,
2013-02-03 04:34:00,41.9,40.0,30.25,WNW,292,0.0,0.0,92,0.00,,,0.00,weatherlink.com 1.10,2013-02-03 10:34:00,
2013-02-03 04:49:00,41.6,40.0,30.26,WNW,292,0.0,0.0,92,0.00,,,0.00,weatherlink.com 1.10,2013-02-03 10:49:00,
2013-02-03 05:04:00,41.2,39.0,30.27,WNW,292,0.0,0.0,92,0.00,,,0.00,weatherlink.com 1.10,2013-02-03 11:04:00,
2013-02-03 05:19:00,40.9,39.0,30.27,WNW,292,0.0,0.0,92,0.00,,,0.00,weatherlink.com 1.10,2013-02-03 11:19:00,
2013-02-03 05:34:00,40.6,39.0,30.27,WNW,292,0.0,0.0,92,0.00,,,0.00,weatherlink.com 1.10,2013-02-03 11:34:00,
2013-02-03 05:49:00,40.4,38.0,30.27,WNW,292,0.0,0.0,92,0.00,,,0.00,weatherlink.com 1.10,2013-02-03 11:49:00,
2013-02-03 06:04:00,40.1,38.0,30.27,WNW,292,0.0,0.0,92,0.00,,,0.00,weatherlink.com 1.10,2013-02-03 12:04:00,
2013-02-03 06:19:00,39.7,38.0,30.27,WNW,292,0.0,0.0,92,0.00,,,0.00,weatherlink.com 1.10,2013-02-03 12:19:00,
2013-02-03 06:34:00,39.1,37.0,30.27,WNW,292,0.0,0.0,92,0.00,,,0.00,weatherlink.com 1.10,2013-02-03 12:34:00,
2013-02-03 06:49:00,38.6,37.0,30.28,WNW,292,0.0,2.0,92,0.00,,,0.00,weatherlink.com 1.10,2013-02-03 12:49:00,
2013-02-03 07:04:00,38.1,36.0,30.28,WNW,292,0.0,1.0,92,0.00,,,0.00,weatherlink.com 1.10,2013-02-03 13:04:00,
2013-02-03 07:19:00,37.9,36.0,30.28,WNW,292,0.0,0.0,93,0.00,,,0.00,weatherlink.com 1.10,2013-02-03 13:19:00,
2013-02-03 07:34:00,37.9,36.0,30.28,WNW,292,0.0,1.0,93,0.00,,,0.00,weatherlink.com 1.10,2013-02-03 13:34:00,
2013-02-03 07:49:00,38.1,37.0,30.29,WNW,292,0.0,0.0,94,0.00,,,0.00,weatherlink.com 1.10,2013-02-03 13:49:00,
2013-02-03 08:04:00,38.7,37.0,30.29,WNW,292,0.0,1.0,94,0.00,,,0.00,weatherlink.com 1.10,2013-02-03 14:04:00,
2013-02-03 08:20:00,39.1,38.0,30.29,WNW,292,0.0,0.0,94,0.00,,,0.00,weatherlink.com 1.10,2013-02-03 14:20:00,
2013-02-03 08:35:00,40.1,39.0,30.30,WNW,292,0.0,0.0,95,0.00,,,0.00,weatherlink.com 1.10,2013-02-03 14:35:00,
2013-02-03 08:49:00,42.2,41.0,30.30,WNW,292,0.0,0.0,96,0.00,,,0.00,weatherlink.com 1.10,2013-02-03 14:49:00,
2013-02-03 09:04:00,43.8,43.0,30.30,WNW,292,0.0,1.0,96,0.00,,,0.00,weatherlink.com 1.10,2013-02-03 15:04:00,
2013-02-03 09:19:00,46.2,45.0,30.30,WNW,292,0.0,1.0,96,0.00,,,0.00,weatherlink.com 1.10,2013-02-03 15:19:00,
2013-02-03 09:35:00,51.1,48.0,30.30,WNW,292,0.0,0.0,88,0.00,,,0.00,weatherlink.com 1.10,2013-02-03 15:35:00,
2013-02-03 09:49:00,53.5,46.0,30.30,WNW,292,0.0,2.0,76,0.00,,,0.00,weatherlink.com 1.10,2013-02-03 15:49:00,
2013-02-03 10:04:00,55.5,47.0,30.31,WNW,292,0.0,3.0,72,0.00,,,0.00,weatherlink.com 1.10,2013-02-03 16:04:00,
2013-02-03 10:19:00,56.8,47.0,30.30,WNW,292,0.0,2.0,70,0.00,,,0.00,weatherlink.com 1.10,2013-02-03 16:19:00,
2013-02-03 10:35:00,58.0,46.0,30.30,WNW,292,0.0,3.0,65,0.00,,,0.00,weatherlink.com 1.10,2013-02-03 16:35:00,
2013-02-03 10:50:00,59.2,46.0,30.30,WNW,292,0.0,2.0,61,0.00,,,0.00,weatherlink.com 1.10,2013-02-03 16:50:00,
2013-02-03 11:05:00,60.5,44.0,30.30,WNW,292,0.0,0.0,54,0.00,,,0.00,weatherlink.com 1.10,2013-02-03 17:05:00,
2013-02-03 11:20:00,61.7,41.0,30.29,West,271,0.0,1.0,47,0.00,,,0.00,weatherlink.com 1.10,2013-02-03 17:20:00,
2013-02-03 11:35:00,62.4,39.0,30.29,WNW,297,1.0,4.0,42,0.00,,,0.00,weatherlink.com 1.10,2013-02-03 17:35:00,
2013-02-03 11:50:00,64.1,42.0,30.28,West,271,1.0,4.0,44,0.00,,,0.00,weatherlink.com 1.10,2013-02-03 17:50:00,
2013-02-03 12:05:00,64.2,39.0,30.27,SW,221,0.0,3.0,40,0.00,,,0.00,weatherlink.com 1.10,2013-02-03 18:05:00,
2013-02-03 12:20:00,64.8,40.0,30.26,NW,304,0.0,3.0,40,0.00,,,0.00,weatherlink.com 1.10,2013-02-03 18:20:00,
2013-02-03 12:35:00,65.4,38.0,30.25,NE,40,0.0,3.0,37,0.00,,,0.00,weatherlink.com 1.10,2013-02-03 18:35:00,
2013-02-03 12:50:00,66.3,39.0,30.24,ENE,73,1.0,4.0,37,0.00,,,0.00,weatherlink.com 1.10,2013-02-03 18:50:00,
2013-02-03 13:05:00,66.3,38.0,30.22,South,186,2.0,5.0,35,0.00,,,0.00,weatherlink.com 1.10,2013-02-03 19:05:00,
2013-02-03 13:20:00,66.0,38.0,30.21,South,180,1.0,6.0,36,0.00,,,0.00,weatherlink.com 1.10,2013-02-03 19:20:00,
2013-02-03 13:35:00,66.5,37.0,30.20,South,191,0.0,7.0,34,0.00,,,0.00,weatherlink.com 1.10,2013-02-03 19:35:00,
2013-02-03 13:51:00,66.8,40.0,30.20,ENE,67,2.0,5.0,37,0.00,,,0.00,weatherlink.com 1.10,2013-02-03 19:51:00,
2013-02-03 14:05:00,67.4,36.0,30.19,NNE,22,7.0,7.0,31,0.00,,,0.00,weatherlink.com 1.10,2013-02-03 20:05:00,
2013-02-03 14:20:00,68.1,38.0,30.18,WSW,240,1.0,4.0,33,0.00,,,0.00,weatherlink.com 1.10,2013-02-03 20:20:00,
2013-02-03 14:35:00,67.6,35.0,30.17,NNE,20,3.0,8.0,30,0.00,,,0.00,weatherlink.com 1.10,2013-02-03 20:35:00,
2013-02-03 14:50:00,67.5,35.0,30.17,ENE,73,1.0,3.0,30,0.00,,,0.00,weatherlink.com 1.10,2013-02-03 20:50:00,
2013-02-03 15:05:00,68.1,35.0,30.16,SE,138,0.0,5.0,29,0.00,,,0.00,weatherlink.com 1.10,2013-02-03 21:05:00,
2013-02-03 15:21:00,67.4,36.0,30.16,NNE,14,1.0,4.0,31,0.00,,,0.00,weatherlink.com 1.10,2013-02-03 21:21:00,
2013-02-03 15:35:00,67.5,34.0,30.15,East,98,0.0,3.0,29,0.00,,,0.00,weatherlink.com 1.10,2013-02-03 21:35:00,
2013-02-03 15:50:00,67.4,33.0,30.15,SSW,213,0.0,3.0,28,0.00,,,0.00,weatherlink.com 1.10,2013-02-03 21:50:00,
2013-02-03 16:06:00,67.2,33.0,30.14,ESE,106,0.0,3.0,28,0.00,,,0.00,weatherlink.com 1.10,2013-02-03 22:06:00,
2013-02-03 16:21:00,67.0,33.0,30.14,South,169,2.0,5.0,28,0.00,,,0.00,weatherlink.com 1.10,2013-02-03 22:21:00,
2013-02-03 16:36:00,66.6,31.0,30.13,South,171,0.0,2.0,27,0.00,,,0.00,weatherlink.com 1.10,2013-02-03 22:36:00,
2013-02-03 16:51:00,65.8,37.0,30.13,SE,142,0.0,1.0,34,0.00,,,0.00,weatherlink.com 1.10,2013-02-03 22:51:00,
2013-02-03 17:06:00,64.8,36.0,30.12,SE,142,0.0,1.0,34,0.00,,,0.00,weatherlink.com 1.10,2013-02-03 23:06:00,
2013-02-03 17:21:00,62.7,38.0,30.12,SE,142,0.0,0.0,40,0.00,,,0.00,weatherlink.com 1.10,2013-02-03 23:21:00,
2013-02-03 17:36:00,60.5,40.0,30.12,SE,142,0.0,0.0,48,0.00,,,0.00,weatherlink.com 1.10,2013-02-03 23:36:00,
2013-02-03 17:51:00,58.5,40.0,30.12,SE,142,0.0,0.0,51,0.00,,,0.00,weatherlink.com 1.10,2013-02-03 23:51:00,
2013-02-03 18:06:00,57.5,40.0,30.12,SE,142,0.0,2.0,53,0.00,,,0.00,weatherlink.com 1.10,2013-02-04 00:06:00,
2013-02-03 18:21:00,56.9,39.0,30.12,SE,142,0.0,0.0,52,0.00,,,0.00,weatherlink.com 1.10,2013-02-04 00:21:00,
2013-02-03 18:36:00,55.3,40.0,30.11,SE,142,0.0,0.0,57,0.00,,,0.00,weatherlink.com 1.10,2013-02-04 00:36:00,
2013-02-03 18:51:00,53.8,40.0,30.11,SE,142,0.0,0.0,61,0.00,,,0.00,weatherlink.com 1.10,2013-02-04 00:51:00,
2013-02-03 19:06:00,52.7,40.0,30.11,SE,142,0.0,0.0,62,0.00,,,0.00,weatherlink.com 1.10,2013-02-04 01:06:00,
2013-02-03 19:21:00,51.3,39.0,30.11,SE,142,0.0,0.0,64,0.00,,,0.00,weatherlink.com 1.10,2013-02-04 01:21:00,
2013-02-03 19:36:00,50.5,39.0,30.11,SE,142,0.0,0.0,66,0.00,,,0.00,weatherlink.com 1.10,2013-02-04 01:36:00,
2013-02-03 19:51:00,49.5,38.0,30.11,SE,142,0.0,0.0,66,0.00,,,0.00,weatherlink.com 1.10,2013-02-04 01:51:00,
2013-02-03 20:06:00,48.1,39.0,30.11,SE,142,0.0,0.0,70,0.00,,,0.00,weatherlink.com 1.10,2013-02-04 02:06:00,
2013-02-03 20:21:00,47.6,39.0,30.11,SE,142,0.0,0.0,71,0.00,,,0.00,weatherlink.com 1.10,2013-02-04 02:21:00,
2013-02-03 20:36:00,47.4,39.0,30.11,SE,142,0.0,0.0,73,0.00,,,0.00,weatherlink.com 1.10,2013-02-04 02:36:00,
2013-02-03 20:51:00,47.3,39.0,30.11,SE,142,0.0,0.0,74,0.00,,,0.00,weatherlink.com 1.10,2013-02-04 02:51:00,
2013-02-03 21:06:00,47.2,39.0,30.11,SE,142,0.0,0.0,74,0.00,,,0.00,weatherlink.com 1.10,2013-02-04 03:06:00,
2013-02-03 21:21:00,47.0,38.0,30.11,SE,142,0.0,0.0,72,0.00,,,0.00,weatherlink.com 1.10,2013-02-04 03:21:00,
2013-02-03 21:36:00,47.0,39.0,30.10,SE,142,0.0,0.0,74,0.00,,,0.00,weatherlink.com 1.10,2013-02-04 03:36:00,
2013-02-03 21:51:00,46.7,38.0,30.11,SE,142,0.0,0.0,73,0.00,,,0.00,weatherlink.com 1.10,2013-02-04 03:51:00,
2013-02-03 22:06:00,46.1,38.0,30.10,SE,142,0.0,0.0,72,0.00,,,0.00,weatherlink.com 1.10,2013-02-04 04:06:00,
2013-02-03 22:21:00,45.8,38.0,30.10,SE,142,0.0,0.0,73,0.00,,,0.00,weatherlink.com 1.10,2013-02-04 04:21:00,
2013-02-03 22:36:00,45.8,38.0,30.09,SE,142,0.0,0.0,73,0.00,,,0.00,weatherlink.com 1.10,2013-02-04 04:36:00,
2013-02-03 22:51:00,46.0,38.0,30.09,SSE,153,0.0,1.0,74,0.00,,,0.00,weatherlink.com 1.10,2013-02-04 04:51:00,
2013-02-03 23:06:00,46.7,39.0,30.08,SSE,153,0.0,0.0,74,0.00,,,0.00,weatherlink.com 1.10,2013-02-04 05:06:00,
2013-02-03 23:21:00,47.2,39.0,30.07,SSE,153,0.0,0.0,74,0.00,,,0.00,weatherlink.com 1.10,2013-02-04 05:21:00,
2013-02-03 23:36:00,47.8,41.0,30.07,SSE,163,0.0,2.0,76,0.00,,,0.00,weatherlink.com 1.10,2013-02-04 05:36:00,
2013-02-03 23:51:00,48.3,41.0,30.06,South,178,1.0,4.0,76,0.00,,,0.00,weatherlink.com 1.10,2013-02-04 05:51:00,